Location: Newark
(11.0000°N, 10.0000°W)
Time: 04:12:59
(UTC+00:00)

Tiangong 2 - Visible Passes

Search period start: 23 March 2019 00:00
Search period end: 02 April 2019 00:00
Orbit: 380 x 390 km, 42.8° (Epoch: 22 March)

Date Brightness Start Highest point End Pass type
(mag) Time Alt. Az. Time Alt. Az. Time Alt. Az.
25 Mar 1.6 19:46:00 10° SSW 19:48:57 39° SE 19:49:25 36° ESE visible
26 Mar 3.5 05:35:54 10° N 05:38:22 21° NE 05:40:51 10° E visible
26 Mar 3.2 20:23:33 10° W 20:26:06 23° NW 20:26:13 23° NW visible
27 Mar 1.4 06:12:30 10° WNW 06:15:32 45° SW 06:18:35 10° SSE visible
27 Mar 1.4 19:23:30 10° SW 19:26:36 65° NW 19:29:42 10° NE visible
28 Mar 1.6 05:16:08 56° NE 05:16:08 56° NE 05:19:10 10° ESE visible
29 Mar 2.8 05:52:53 17° SW 05:53:08 17° SW 05:55:17 10° S visible
